Other Public Products
Issued by NWS Charleston, SC

Current Version | Previous Version | Text Only | Print | Product List | Glossary Off
Versions: 1 2 3 4 5 6 7 8 9 10 11 12 13 14 15 16 17 18 19 20 21 22 23 24 25 26 27 28 29 30 31 32 33 34 35 36 37 38 39 40 41 42 43 44 45 46 47 48 49 50

253
FPUS82 KCHS 252312
OPUCHS

TEST...KCHS/KSAV Gateway Observations...TEST
National Weather Service Charleston SC
700 PM EDT SAT MAR 25 2017

NOTE: "fair" indicates few or no clouds below 12,000 feet with no
significant weather and/or obstructions to visibility.

SCZ050-WAZ558-NCZ071-TXZ119-213-PAZ071-DCZ001-FLZ074-172-MI076-
NYZ176-178-MAZ016-IL014-TNZ027-NJZ106-GAZ044-MD014-260000-

...Gateway Observations for Charleston International...

CITY           SKY/WX    TMP DP  RH WIND       PRES   REMARKS
Chas Airport   MOCLDY    69  55  60 SE15      30.21F
Seattle        PTSUNNY   50  38  63 SW12      30.10S
Charlotte      MOCLDY    71  48  43 S12       30.18S
Dallas DFW     MOSUNNY   73  43  33 NW13      29.90F
Dallas Love    MOSUNNY   72  44  36 W9        29.90F
Philladelphia  CLOUDY    58  50  75 NE16G31   30.24R
Wash National  CLOUDY    72  52  49 NE3       30.15R
Baltimore      CLOUDY    72  51  47 SE7       30.15R
Miami          MOCLDY    74  64  71 NE10      30.12R
Detroit        CLOUDY    44  38  79 E13       30.20S
Newark         CLOUDY    50  40  68 CALM      30.28S
Laguardia      CLOUDY    51  38  60 E6        30.28R
J F K          CLOUDY    50  41  71 SE9       30.29R
Boston Logan   CLOUDY    38  35  89 N5        30.33R WCI  34
Ft. Lauderdale LGT RAIN  71  65  81 E15       30.11S
Chicago O`Hare RAIN      43  41  93 N8        29.98F FOG
Chicago Midway LGT RAIN  45  44  97 N13G21    29.97F FOG
Houston Bush   MOSUNNY   79  52  38 VRB3      29.92F
Houston Hobby  MOSUNNY   81  51  35 SW10      29.91F
Nashville      CLOUDY    65  56  72 S14G23    30.00R
Atlanta        MOSUNNY   74  50  42 SE13      30.09F

$$

GAZ044-118-TXZ119-213-NCZ071-DCZ001-MDZ014-506-PAZ021-071-NJZ106-
NYZ176-178-MAZ106-OHZ011-021-055-MIZ076-KYZ091-ILZ014-INZ047-
MNZ060-ONZ431-260000-

...Gateway Observations for Savannah International...

CITY           SKY/WX    TMP DP  RH WIND       PRES   REMARKS
Savannah Arpt  PTCLDY    71  52  50 SE15      30.19S
Atlanta        MOSUNNY   74  50  42 SE13      30.09F
Charlotte      MOCLDY    71  48  43 S12       30.18S
Dallas DFW     MOSUNNY   73  43  33 NW13      29.90F
Houston Bush   MOSUNNY   79  52  38 VRB3      29.92F
Wash National  CLOUDY    72  52  49 NE3       30.15R
Wash Dulles    CLOUDY    71  53  52 E3        30.15R
Baltimore      CLOUDY    72  51  47 SE7       30.15R
Philadelphia   CLOUDY    58  50  75 NE16G31   30.24R
Newark         CLOUDY    50  40  68 CALM      30.28S
Laguardia      CLOUDY    51  38  60 E6        30.28R
J F K          CLOUDY    50  41  71 SE9       30.29R
Boston         CLOUDY    38  35  89 N5        30.33R WCI  34
Pittsburg      CLOUDY    70  52  52 E3        30.13S
Akron          CLOUDY    64  50  60 NE8       30.13S
Cleveland      CLOUDY    44  36  73 N12       30.17S
Cincinnati     CLOUDY    73  51  46 S15G23    30.00S
Columbus       PTCLDY    72  51  47 SE5       30.06S
Detroit        CLOUDY    44  38  79 E13       30.20S
Chicago O`Hare RAIN      43  41  93 N8        29.98F FOG
Minneapolis    CLOUDY    43  32  65 NE13      30.06F
Indianapolis   LGT RAIN  62  57  83 SW8       29.94R
Toronto Canada MOCLDY    37  32  81 E12G17    30.33F WCI  30

$$




USA.gov is the U.S. government's official web portal to all federal, state and local government web resources and services.